{"data":{"norad_id":58109,"intl_designator":"2023-161N","name":"STARLINK-30606","alt_names":[],"object_type":"PAYLOAD","status":"ACTIVE","operator":null,"country":"US","launch_date":"2023-10-21","launch_site_code":"AFWTR","launch_vehicle":null,"mission":null,"orbit_class":"UNKNOWN","rcs_meters":null,"size_class":null,"mass_kg":null,"dimensions":null,"purposes":["comms"],"wikipedia_slug":null,"has_3d_model":false,"image_url":null,"decayed_at":null,"tle_current":{"epoch":"2026-09-20T12:01:46.094016Z","epoch_age_seconds":140400,"freshness":"FRESH","line1":"1 58109U 23161N   26263.50122794 -.00001459  00000+0 -32064-4 0  9994","line2":"2 58109  53.1602 337.4237 0001204  76.5713 283.5424 15.34378205164295","mean_motion":15.34378205,"eccentricity":0.0001204,"inclination_deg":53.1602,"raan_deg":337.4237,"arg_perigee_deg":76.5713,"mean_anomaly_deg":283.5424,"bstar":-3.2064e-5,"rev_number":16429,"period_min":93.849091137214,"perigee_km":461.94437534254,"apogee_km":463.59166527143,"semimajor_km":6840.905020307,"source":"CELESTRAK","updated_at":"2026-09-21T09:00:33.788521Z"}}}